Weather History for KMGJ - September, 2013

Change the Weather History Date:

Thursday, September 12, 2013

  Actual Average (KPOU) Record (KPOU)
Temperature  
Mean Temperature 74 °F 65 °F  
Max Temperature 84 °F 77 °F 94 °F (1961)
Min Temperature 66 °F 53 °F 36 °F (1958)
Degree Days  
Heating Degree Days 0 3  
Month to date heating degree days 24  
Since 1 July heating degree days 41  
Cooling Degree Days 9 0  
Month to date cooling degree days 41  
Year to date cooling degree days 645  
Growing Degree Days 24 (Base 50)    
Moisture  
Dew Point 69 °F    
Average Humidity 86    
Maximum Humidity 97    
Minimum Humidity 69    
Precipitation  
Precipitation 0.12 in 0.15 in 3.04 in (1960)
Month to date precipitation 1.65  
Year to date precipitation 32.43  
Sea Level Pressure  
Sea Level Pressure 29.81 in    
Wind  
Wind Speed 3 mph (SSW)    
Max Wind Speed 13 mph    
Max Gust Speed 20 mph    
Visibility 8 miles    
Events Rain    
T = Trace of Precipitation, MM = Missing Value Source: NWS Daily Summary

Daily Weather History Graph

Daily Weather History Graph

Search for Another Location

Airport or City:

Trip Planner

Search our weather history database for the weather conditions in past years. The results will help you decide how hot, cold, wet, or windy it might be!

Date:

Astronomy

Sep. 12, 2013 Rise Set
Actual Time 6:34 AM EDT 7:11 PM EDT
Civil Twilight 6:06 AM EDT 7:39 PM EDT
Nautical Twilight 5:33 AM EDT 8:11 PM EDT
Astronomical Twilight 4:59 AM EDT 8:45 PM EDT
Moon 2:04 PM EDT (9/12) 11:59 PM EDT (9/12)
Length of Visible Light 13h 32m
Length of Day
12h 36m
Waxing Crescent, 50% of the Moon is Illuminated
Sep 12
Waxing Crescent
Sep 12
First Quarter
Sep 19
Full
Sep 26
Last Quarter
Oct 4
New

Hourly Weather History & Observations

Time (EDT) Temp. Heat Index Dew Point Humidity Pressure Visibility Wind Dir Wind Speed Gust Speed Precip Events Conditions
12:54 AM 70.0 °F - 66.9 °F 90% 29.96 in 10.0 mi Calm Calm - N/A   Clear
1:54 AM 69.1 °F - 66.0 °F 90% 29.96 in 10.0 mi Calm Calm - N/A   Scattered Clouds
2:54 AM 68.0 °F - 66.0 °F 93% 29.94 in 8.0 mi Calm Calm - N/A   Clear
3:54 AM 66.9 °F - 66.0 °F 97% 29.93 in 5.0 mi Calm Calm - N/A   Clear
4:54 AM 66.9 °F - 66.0 °F 97% 29.93 in 9.0 mi Calm Calm - N/A   Mostly Cloudy
5:54 AM 66.9 °F - 64.9 °F 93% 29.93 in 8.0 mi South 4.6 mph - N/A   Clear
6:54 AM 66.9 °F - 66.0 °F 97% 29.91 in 8.0 mi South 3.5 mph - N/A   Partly Cloudy
7:54 AM 69.1 °F - 66.9 °F 93% 29.91 in 8.0 mi Calm Calm - 0.00 in Rain Light Rain
8:54 AM 73.0 °F - 69.1 °F 87% 29.90 in 10.0 mi SSW 5.8 mph - 0.00 in   Partly Cloudy
9:54 AM 75.0 °F - 70.0 °F 84% 29.88 in 6.0 mi SSW 9.2 mph - N/A   Haze
10:54 AM 80.1 °F 84.2 °F 73.0 °F 79% 29.86 in 7.0 mi SSW 8.1 mph - N/A   Partly Cloudy
11:54 AM 82.0 °F 87.4 °F 73.0 °F 74% 29.84 in 6.0 mi SSW 10.4 mph - N/A   Haze
12:54 PM 81.0 °F 84.9 °F 71.1 °F 72% 29.82 in 8.0 mi SW 11.5 mph 19.6 mph N/A   Partly Cloudy
1:54 PM 82.0 °F 87.4 °F 73.0 °F 74% 29.78 in 9.0 mi SSW 10.4 mph - N/A   Partly Cloudy
2:54 PM 82.0 °F 86.3 °F 71.1 °F 69% 29.75 in 10.0 mi SSW 12.7 mph - N/A   Clear
3:54 PM 82.0 °F 86.7 °F 72.0 °F 71% 29.73 in 8.0 mi SSW 10.4 mph - N/A   Mostly Cloudy
4:38 PM 80.6 °F 84.6 °F 71.6 °F 74% 29.72 in 6.0 mi SSW 9.2 mph - N/A   Haze
4:54 PM 80.1 °F 83.8 °F 72.0 °F 76% 29.71 in 6.0 mi South 3.5 mph - N/A   Haze
5:54 PM 78.1 °F - 73.0 °F 84% 29.69 in 5.0 mi Calm Calm - N/A   Haze
6:54 PM 75.9 °F - 71.1 °F 85% 29.70 in 6.0 mi WNW 9.2 mph - N/A   Haze
7:54 PM 71.1 °F - 64.9 °F 81% 29.70 in 6.0 mi Calm Calm - 0.02 in Rain Rain
8:54 PM 68.0 °F - 66.0 °F 93% 29.72 in 10.0 mi SSW 3.5 mph - 0.09 in   Partly Cloudy
9:09 PM 68.0 °F - 66.2 °F 94% 29.73 in 9.0 mi SSW 4.6 mph - N/A   Partly Cloudy
9:54 PM 68.0 °F - 66.0 °F 93% 29.72 in 9.0 mi Calm Calm - N/A   Partly Cloudy
10:54 PM 66.9 °F - 66.0 °F 97% 29.71 in 7.0 mi SSW 3.5 mph - N/A   Clear
11:54 PM 66.9 °F - 66.0 °F 97% 29.70 in 8.0 mi Calm Calm - 0.01 in Rain Light Rain